Probability
55 42 39 26 29 10 6 10 0 6 6 10 19 35 48 45 45 61 71 77 97 97 100 100 100 100 100 100 100 100 100 100 100 100 100 100 100 100 100 100 94 97 97 94 94 97 97 97 94
29 23 26 32 35 10 6 0 0 3 3 13 26 45 58 65 71 90 81 77 97 100 100 100 100 100 100 100 100 100 100 100 100 100 100 100 100 97 97 94 94 100 100 97 97 94 94 100 90
23 23 19 29 16 10 3 0 3 10 13 26 29 42 52 65 81 90 84 81 97 100 100 100 100 100 100 100 100 100 100 100 100 100 100 100 100 97 97 94 97 97 94 97 87 87 90 90 90
23 23 26 23 10 6 3 3 3 13 13 16 32 52 52 68 84 84 90 90 100 100 100 100 100 100 100 100 100 100 100 100 100 100 100 100 100 100 100 100 100 100 100 94 87 87 90 90 90
13 13 10 6 6 6 6 10 6 16 19 32 42 42 65 61 71 84 87 90 100 100 100 100 100 100 100 100 100 100 100 100 100 100 100 100 100 100 100 97 100 100 97 97 90 90 87 84 84
13 10 3 3 0 0 3 10 23 26 32 39 48 48 52 58 71 81 84 94 97 97 97 97 97 100 100 100 100 100 100 100 100 100 100 100 100 100 100 97 97 97 97 94 90 94 87 84 87
16 6 3 0 0 0 13 26 32 39 42 45 45 55 52 55 58 81 77 90 94 97 97 97 97 97 97 100 97 100 100 100 100 100 100 100 100 100 100 97 97 97 97 97 94 94 94 90 90
6 3 0 0 0 3 19 29 23 42 39 52 61 45 45 52 55 65 74 81 87 94 94 94 94 94 94 97 100 100 100 100 100 100 100 97 97 97 100 100 97 97 97 97 97 94 94 94 97
3 3 0 0 0 3 23 23 19 35 39 45 52 52 48 45 55 65 77 74 81 84 90 84 87 87 94 94 97 97 100 100 100 100 97 97 94 90 97 100 100 100 100 97 97 97 97 97 100
0 0 0 0 3 6 13 13 23 29 29 35 42 45 48 45 55 61 61 58 61 68 74 77 77 81 84 90 84 87 84 84 84 90 90 94 87 84 94 97 100 100 100 100 100 100 100 100 87
0 0 0 6 13 16 16 23 19 32 39 35 42 48 48 48 52 55 48 55 52 55 61 65 74 77 84 81 84 81 74 74 74 71 68 61 55 58 58 68 74 74 81 77 90 100 97 87 74
0 0 0 6 13 16 19 32 32 35 32 42 48 45 42 52 55 45 55 52 52 55 58 58 58 65 61 61 65 65 71 68 61 52 52 48 35 32 26 39 42 42 45 48 52 58 68 55 61
0 0 0 3 3 10 23 29 32 35 32 48 45 48 55 48 45 42 52 52 45 48 52 45 48 45 42 39 52 52 42 42 39 29 29 26 23 16 10 13 16 23 23 19 29 39 42 42 32
0 0 0 0 0 6 10 13 32 35 39 42 42 42 52 48 48 45 45 35 39 45 42 42 39 32 29 23 19 23 29 19 16 16 16 10 6 6 6 6 10 10 10 6 10 13 16 19 26
0 0 3 0 3 0 0 6 16 32 35 39 39 35 42 48 39 26 26 26 35 39 32 29 32 29 26 19 19 16 10 6 6 10 13 10 3 3 3 3 3 3 3 6 6 6 6 6 0
0 0 0 0 0 0 0 3 13 23 29 26 23 29 35 35 32 23 26 19 23 32 23 23 23 16 13 13 13 10 10 6 6 3 3 6 6 3 3 3 3 3 3 3 3 3 3 3 3
0 0 0 0 0 0 0 3 10 13 26 26 19 26 26 23 19 19 32 26 19 19 16 13 19 13 13 10 6 13 13 0 0 3 3 6 6 3 3 3 3 3 3 3 3 0 3 3 3
0 0 0 0 0 0 0 0 6 3 10 6 13 3 10 10 6 16 16 13 10 6 3 0 0 3 6 6 3 3 3 0 0 0 3 3 3 3 3 3 3 3 3 3 3 0 0 0 0
0 0 0 0 0 0 0 3 6 0 3 13 10 6 10 6 3 6 13 13 10 0 0 0 0 0 0 0 0 0 0 0 0 0 3 3 3 3 3 3 3 3 3 3 3 3 3 0 0
0 0 0 0 3 0 3 6 10 13 6 10 6 10 6 6 6 10 10 6 10 6 6 0 0 0 0 0 0 0 0 0 0 0 0 0 0 0 0 0 0 0 0 0 0 0 3 3 0
0 0 0 3 3 3 3 3 3 6 10 10 6 10 10 6 10 10 6 6 6 6 3 3 0 0 0 0 0 0 0 0 0 0 0 0 0 0 0 0 0 0 0 0 0 0 0 0 0
0 0 0 0 0 3 0 0 3 3 3 6 3 3 3 6 3 3 3 3 3 0 0 0 0 0 0 0 0 0 0 0 0 0 0 0 0 0 0 0 0 0 0 0 0 0 0 0 0
0 0 0 0 0 0 0 0 3 3 0 3 3 6 3 0 0 0 3 0 3 3 0 0 0 0 0 0 0 0 0 0 0 0 0 0 0 0 0 0 0 0 0 0 0 0 0 0 0
0 0 0 0 0 0 0 0 0 3 0 0 3 6 0 0 0 0 0 3 3 0 0 0 0 0 0 0 0 0 0 0 0 0 0 0 0 0 0 0 0 0 0 0 0 0 0 0 0
0 0 0 0 0 0 0 0 0 0 0 0 3 6 0 0 0 3 3 0 0 0 0 0 0 0 0 0 0 0 0 0 0 0 0 0 0 0 0 0 0 0 0 0 0 0 0 0 0
0 0 0 0 0 0 0 0 0 0 0 3 3 6 6 0 0 3 6 0 0 0 0 0 0 0 0 0 0 0 0 0 0 0 0 0 0 0 0 0 0 0 0 0 0 0 0 0 0
0 0 0 0 0 0 0 0 0 0 0 0 3 3 0 0 0 3 3 0 0 0 0 0 0 0 0 0 0 0 0 0 0 0 0 0 0 0 0 0 0 0 0 0 0 0 0 0 0
0 0 0 0 0 0 0 0 0 0 3 0 0 0 0 0 0 0 3 3 3 3 0 0 0 0 0 0 0 0 0 0 0 0 0 0 0 0 0 0 0 0 0 0 0 0 0 0 0
0 0 0 0 0 0 0 0 0 0 0 0 3 0 0 0 0 3 3 3 0 0 0 3 0 0 0 0 0 0 0 0 0 0 0 0 0 0 0 0 0 0 0 0 0 0 0 0 0
0 0 0 0 0 0 0 0 0 0 0 0 3 0 0 0 0 0 0 0 0 3 3 0 0 0 0 0 0 0 0 0 0 0 0 0 0 0 0 0 0 0 0 0 0 0 0 0 0
Height
5926 5925 5924 5924 5924 5922 5920 5919 5917 5914 5912 5910 5909 5909 5909 5910 5911 5913 5910 5908 5907 5907 5906 5907 5906 5906 5906 5906 5906 5905 5905 5906 5905 5905 5905 5905 5905 5905 5905 5905 5905 5904 5904 5904 5904 5903 5903 5903 5903
5924 5923 5923 5922 5921 5920 5918 5917 5915 5912 5910 5907 5907 5908 5908 5908 5908 5908 5906 5905 5905 5905 5905 5905 5905 5905 5905 5905 5904 5904 5904 5904 5904 5904 5904 5904 5904 5904 5904 5904 5904 5904 5904 5903 5903 5903 5903 5903 5903
5922 5921 5921 5920 5918 5917 5916 5914 5912 5910 5907 5906 5904 5905 5906 5907 5906 5905 5903 5903 5903 5903 5904 5904 5904 5903 5903 5903 5903 5903 5902 5902 5902 5902 5902 5902 5903 5903 5903 5903 5903 5903 5903 5903 5903 5903 5903 5903 5903
5920 5920 5919 5918 5916 5914 5912 5911 5909 5907 5904 5903 5902 5902 5902 5904 5904 5903 5900 5901 5901 5901 5902 5902 5902 5902 5901 5901 5901 5901 5901 5900 5900 5900 5900 5900 5901 5901 5901 5901 5902 5902 5902 5902 5902 5902 5902 5902 5902
5918 5917 5917 5915 5913 5911 5908 5907 5906 5905 5903 5901 5900 5900 5900 5901 5901 5900 5899 5897 5898 5899 5899 5900 5900 5899 5899 5899 5899 5898 5898 5898 5898 5898 5898 5898 5898 5898 5899 5899 5899 5900 5900 5900 5900 5900 5901 5901 5902
5916 5915 5914 5913 5911 5909 5906 5904 5903 5903 5900 5898 5897 5898 5898 5898 5898 5896 5895 5894 5895 5896 5896 5897 5897 5896 5896 5896 5896 5896 5896 5896 5895 5895 5895 5895 5896 5896 5896 5896 5897 5897 5898 5898 5898 5898 5899 5899 5900
5914 5912 5911 5910 5907 5906 5904 5901 5899 5898 5896 5895 5894 5895 5895 5894 5894 5893 5892 5891 5892 5893 5894 5894 5894 5894 5894 5893 5893 5893 5893 5893 5892 5892 5892 5892 5892 5893 5893 5893 5894 5894 5895 5895 5896 5896 5896 5897 5898
5910 5909 5907 5906 5904 5902 5901 5898 5896 5895 5894 5893 5892 5892 5893 5892 5890 5889 5890 5888 5888 5889 5891 5892 5891 5891 5891 5891 5890 5890 5890 5890 5889 5889 5889 5889 5889 5889 5890 5890 5890 5891 5892 5892 5893 5893 5894 5894 5895
5906 5906 5904 5903 5901 5899 5898 5896 5894 5892 5891 5890 5889 5890 5890 5889 5887 5886 5887 5887 5886 5886 5887 5888 5889 5889 5888 5888 5888 5887 5887 5887 5886 5886 5886 5885 5885 5885 5886 5886 5886 5887 5888 5889 5889 5889 5890 5891 5892
5903 5902 5901 5899 5897 5896 5895 5894 5891 5890 5888 5887 5885 5885 5885 5884 5885 5884 5883 5884 5884 5884 5884 5885 5885 5886 5886 5885 5885 5885 5884 5883 5882 5882 5882 5882 5881 5881 5882 5882 5882 5883 5883 5884 5885 5885 5886 5887 5888
5899 5898 5897 5895 5894 5893 5891 5890 5888 5886 5884 5883 5882 5882 5880 5880 5879 5879 5880 5880 5880 5880 5879 5881 5882 5882 5882 5882 5882 5881 5880 5879 5879 5878 5877 5877 5877 5877 5877 5877 5878 5878 5879 5879 5880 5881 5882 5883 5884
5896 5894 5893 5891 5890 5889 5887 5885 5883 5881 5880 5879 5878 5877 5877 5875 5876 5877 5877 5878 5877 5877 5877 5877 5877 5877 5877 5878 5877 5877 5876 5875 5874 5874 5873 5873 5872 5873 5873 5873 5873 5873 5874 5874 5875 5876 5877 5878 5879
5893 5892 5890 5888 5887 5885 5884 5882 5879 5876 5875 5874 5874 5872 5873 5873 5874 5875 5874 5873 5874 5875 5874 5874 5874 5874 5874 5873 5873 5872 5871 5870 5870 5869 5869 5868 5868 5868 5868 5868 5868 5868 5868 5869 5870 5871 5871 5873 5874
5891 5890 5888 5886 5884 5883 5881 5879 5877 5873 5872 5872 5871 5871 5871 5871 5871 5871 5871 5871 5872 5871 5870 5870 5869 5870 5869 5869 5868 5868 5866 5866 5865 5865 5864 5864 5863 5863 5863 5862 5863 5862 5863 5864 5865 5866 5866 5867 5869
5889 5888 5887 5884 5882 5880 5879 5876 5874 5871 5870 5869 5868 5868 5868 5869 5868 5867 5867 5868 5868 5867 5867 5867 5866 5866 5865 5864 5864 5863 5862 5861 5860 5860 5859 5859 5858 5858 5858 5858 5858 5858 5858 5858 5859 5860 5861 5862 5864
5888 5887 5885 5882 5880 5878 5878 5874 5871 5869 5868 5867 5866 5865 5866 5867 5866 5865 5865 5865 5865 5865 5865 5864 5863 5862 5861 5860 5860 5859 5858 5857 5856 5855 5855 5854 5853 5853 5853 5853 5853 5853 5853 5853 5854 5855 5856 5857 5858
5887 5884 5882 5881 5879 5877 5874 5871 5870 5868 5868 5866 5865 5864 5865 5865 5864 5864 5864 5864 5863 5862 5862 5860 5859 5858 5857 5856 5855 5855 5854 5853 5852 5851 5850 5850 5849 5848 5848 5848 5848 5848 5848 5848 5849 5849 5850 5851 5852
5884 5882 5880 5879 5877 5875 5873 5871 5870 5868 5866 5865 5865 5865 5865 5864 5863 5863 5862 5862 5861 5860 5859 5858 5856 5855 5854 5852 5852 5851 5850 5848 5847 5846 5846 5845 5844 5844 5843 5843 5843 5842 5843 5843 5843 5844 5844 5845 5846
5882 5881 5880 5878 5876 5874 5872 5870 5869 5867 5866 5864 5864 5864 5864 5863 5862 5862 5861 5860 5859 5858 5856 5854 5853 5852 5851 5849 5848 5847 5846 5845 5843 5842 5841 5840 5839 5838 5838 5837 5837 5837 5837 5837 5837 5838 5838 5839 5840
5881 5880 5879 5877 5875 5873 5872 5870 5869 5867 5865 5864 5863 5862 5862 5862 5861 5861 5860 5858 5857 5856 5854 5852 5851 5849 5848 5846 5845 5844 5842 5841 5840 5838 5836 5835 5834 5833 5833 5832 5832 5832 5831 5831 5832 5832 5832 5833 5834
5879 5878 5877 5875 5874 5872 5871 5871 5869 5868 5866 5864 5862 5862 5861 5861 5860 5860 5859 5857 5856 5854 5852 5850 5849 5847 5845 5843 5842 5841 5839 5837 5835 5834 5832 5831 5829 5828 5827 5827 5827 5826 5826 5826 5826 5825 5826 5826 5827
5878 5877 5876 5874 5873 5871 5871 5869 5868 5867 5865 5864 5863 5862 5861 5860 5859 5859 5858 5857 5855 5853 5850 5849 5847 5845 5843 5841 5839 5837 5835 5833 5832 5830 5828 5826 5825 5823 5822 5821 5821 5820 5820 5819 5819 5819 5819 5819 5820
5877 5876 5875 5873 5872 5871 5869 5869 5868 5866 5865 5864 5863 5862 5861 5859 5859 5858 5857 5855 5853 5851 5849 5847 5845 5842 5841 5838 5836 5834 5832 5830 5828 5826 5824 5822 5820 5818 5817 5816 5815 5814 5813 5813 5813 5812 5812 5812 5812
5876 5875 5874 5873 5872 5871 5869 5869 5868 5867 5865 5864 5863 5862 5861 5859 5858 5856 5855 5853 5851 5849 5847 5845 5843 5840 5838 5836 5834 5831 5829 5827 5824 5822 5820 5818 5816 5814 5812 5810 5809 5808 5807 5806 5806 5805 5805 5805 5805
5874 5874 5873 5872 5871 5870 5869 5868 5868 5866 5865 5863 5862 5861 5859 5858 5857 5855 5854 5852 5850 5848 5846 5843 5841 5839 5836 5833 5831 5828 5826 5823 5821 5818 5816 5813 5811 5809 5807 5805 5804 5802 5801 5800 5799 5798 5798 5797 5797
5872 5872 5872 5871 5869 5868 5868 5867 5867 5865 5863 5862 5860 5859 5858 5857 5856 5854 5852 5850 5848 5846 5844 5842 5839 5836 5834 5831 5828 5825 5823 5820 5817 5814 5812 5809 5807 5804 5802 5800 5798 5797 5795 5794 5792 5791 5790 5790 5789
5871 5870 5870 5869 5867 5867 5866 5866 5865 5863 5862 5861 5859 5858 5857 5856 5855 5853 5851 5849 5848 5845 5843 5840 5837 5835 5832 5829 5826 5823 5820 5817 5814 5811 5808 5805 5803 5800 5797 5795 5793 5791 5789 5787 5786 5784 5783 5782 5781
5869 5868 5868 5867 5866 5865 5865 5864 5863 5862 5861 5860 5859 5857 5856 5855 5853 5852 5850 5849 5847 5844 5842 5839 5836 5833 5830 5827 5823 5820 5817 5814 5811 5807 5804 5801 5798 5795 5792 5790 5787 5785 5783 5781 5779 5777 5775 5773 5772
5866 5866 5865 5865 5864 5863 5862 5864 5862 5860 5859 5858 5857 5856 5854 5853 5852 5850 5849 5847 5845 5843 5840 5837 5834 5831 5828 5825 5821 5818 5814 5811 5807 5804 5801 5797 5794 5791 5788 5785 5782 5779 5776 5774 5771 5769 5767 5765 5763
5863 5863 5862 5862 5861 5860 5860 5863 5859 5859 5857 5856 5855 5854 5852 5851 5850 5848 5847 5846 5844 5841 5839 5836 5832 5829 5826 5823 5819 5816 5812 5808 5805 5801 5797 5794 5790 5787 5783 5779 5776 5773 5769 5766 5763 5761 5758 5756 5754
Wind_Speed
10 9 8 8 8 9 10 11 11 9 10 8 8 10 9 9 8 7 5 4 4 4 3 3 3 3 4 4 5 5 5 6 6 7 7 7 8 7 7 7 6 6 5 4 3 3 2 3 3
11 11 11 10 10 10 10 11 12 13 11 10 9 9 9 9 8 7 5 4 3 3 3 3 4 4 5 5 5 5 6 6 7 7 8 8 8 8 8 7 7 7 6 5 4 3 3 2 2
13 13 13 12 11 11 10 10 12 15 13 13 13 13 12 11 10 8 7 4 3 3 4 5 5 5 6 6 7 7 7 7 7 7 8 8 9 8 8 8 8 8 8 7 6 5 4 3 3
15 14 14 13 13 13 14 14 15 15 16 17 15 14 11 11 11 10 7 4 3 4 5 5 5 6 6 7 7 7 8 8 8 8 9 9 10 10 10 10 9 9 9 9 8 7 6 5 4
15 15 14 13 14 15 15 15 16 18 20 21 19 16 14 13 12 11 9 5 3 4 5 5 5 6 6 7 8 8 9 9 9 10 10 11 11 11 11 11 11 11 11 11 10 9 8 7 6
16 16 15 13 14 16 16 17 18 22 24 23 21 20 17 14 13 11 9 7 4 3 4 5 6 6 7 7 8 9 9 10 11 11 11 12 13 13 13 13 13 13 13 12 12 11 11 9 8
17 17 17 15 15 16 16 19 21 23 24 24 23 22 18 14 13 13 11 7 5 4 4 6 6 8 8 9 9 10 11 11 12 12 13 14 14 15 15 15 15 15 14 14 14 14 13 12 11
17 17 17 16 16 17 18 21 24 27 28 26 24 21 19 16 14 12 11 8 7 6 6 6 7 8 10 10 10 11 11 12 13 13 13 14 15 16 17 17 17 17 17 16 16 15 15 14 13
17 17 17 17 19 20 20 23 26 28 29 28 26 23 20 16 14 12 10 10 9 8 8 7 8 9 10 10 11 11 12 13 14 14 14 15 17 18 19 19 19 19 19 19 19 18 17 16 15
17 17 17 18 19 21 22 23 26 28 29 28 25 21 17 16 15 13 11 11 11 9 8 8 9 10 11 12 12 13 14 15 15 15 16 17 17 18 20 21 21 21 20 21 22 22 20 19 17
15 14 15 16 18 20 22 22 25 28 28 27 24 22 17 16 14 12 13 14 13 10 8 9 11 12 13 13 14 15 16 17 16 16 17 18 18 18 19 20 21 21 21 22 22 23 22 22 21
13 13 14 16 17 19 21 22 24 25 25 24 22 19 16 16 14 13 12 12 13 11 9 9 11 12 13 14 15 16 17 18 18 17 17 18 19 19 19 20 20 21 21 21 22 22 22 23 23
12 11 12 15 17 17 19 20 22 23 21 19 18 16 12 12 13 14 13 12 13 12 11 12 12 14 15 15 16 17 18 19 18 18 18 19 19 19 19 20 20 20 20 21 22 22 23 24 24
10 10 11 14 15 16 16 16 16 17 16 15 13 11 10 11 13 13 12 11 12 13 14 14 14 15 16 16 17 18 18 17 17 17 18 18 19 19 19 18 19 19 20 21 21 22 22 23 24
9 10 11 14 14 14 14 13 13 12 11 11 9 7 8 10 12 12 11 11 13 12 13 14 15 15 15 16 17 17 16 15 16 17 17 17 18 19 18 18 18 18 19 20 21 22 22 23 25
11 11 11 12 13 11 12 12 12 11 10 8 5 5 6 8 10 10 10 11 11 11 12 13 14 15 16 16 16 15 15 15 15 16 16 17 17 18 18 18 18 18 19 19 20 22 22 24 25
10 11 11 12 10 10 11 11 11 10 8 6 6 5 5 6 7 8 9 11 11 11 11 12 13 14 15 15 14 14 15 15 16 16 17 17 18 18 18 18 19 20 19 20 21 21 22 24 25
12 12 11 11 10 10 10 9 10 9 8 7 7 6 6 6 6 7 8 9 10 11 12 13 14 14 14 14 14 14 15 15 15 16 17 17 18 18 19 19 20 20 20 20 21 21 21 23 25
12 12 11 9 9 10 10 9 9 9 8 6 5 4 5 6 6 6 7 8 9 11 11 11 11 12 12 13 13 13 13 14 15 17 17 18 18 18 19 19 20 20 20 21 21 21 22 24 24
11 11 10 9 10 10 10 9 9 10 8 7 6 5 5 5 5 5 6 8 9 10 11 11 11 11 11 12 12 12 13 13 15 16 16 17 17 18 19 19 19 20 20 21 22 23 23 24 25
10 10 9 9 10 10 9 8 7 7 6 7 6 6 5 6 6 6 7 8 9 9 10 10 10 11 11 11 12 12 13 13 14 15 15 16 17 18 18 19 19 20 20 21 22 23 24 25 25
8 8 9 7 9 10 9 7 6 5 5 6 6 5 5 6 6 7 7 8 9 9 10 10 10 11 11 12 12 12 13 13 13 14 14 15 16 17 18 18 19 20 21 21 22 23 24 25 26
7 7 8 8 8 8 7 6 5 6 6 7 7 7 7 7 7 8 8 9 10 10 11 11 12 12 12 12 12 13 13 13 14 14 14 15 16 16 17 18 19 20 21 22 22 23 24 25 26
6 6 7 7 6 6 6 6 7 6 7 7 7 8 8 8 8 9 10 11 11 12 12 13 13 13 13 13 13 13 13 14 14 14 14 15 15 16 17 18 18 19 21 22 22 23 24 25 26
6 6 6 6 5 5 5 6 7 7 7 8 8 8 9 9 10 10 11 11 12 12 13 14 14 14 14 14 14 14 14 14 14 15 15 15 16 17 17 18 19 19 20 22 22 23 24 25 26
6 6 6 7 7 6 5 5 6 7 8 8 9 9 9 9 10 10 11 12 12 12 13 14 14 15 15 14 15 15 15 15 15 16 16 16 16 17 18 18 19 20 20 21 22 23 25 26 27
6 6 6 7 5 5 3 4 5 7 8 9 9 9 9 9 10 10 11 12 11 12 13 14 15 15 15 15 15 16 16 16 16 16 16 17 17 18 18 18 19 20 20 22 23 23 25 26 27
6 6 6 7 7 7 5 5 5 6 7 8 8 8 9 9 9 10 11 11 11 12 13 14 14 15 15 16 16 16 17 17 17 17 18 18 18 19 19 19 20 21 21 22 23 24 25 26 27
8 8 9 9 9 9 7 6 6 6 7 8 8 8 9 9 9 10 11 11 11 12 13 14 15 15 16 16 16 17 17 18 18 18 19 19 19 19 20 20 21 21 22 23 24 24 25 26 27
11 11 10 9 9 10 10 7 6 7 7 7 8 8 8 8 9 10 10 11 11 12 13 14 15 16 16 17 17 17 18 18 19 19 20 20 20 21 21 22 22 22 23 24 25 25 26 26 27
Wind_Direction
311 305 303 304 298 301 303 309 307 306 300 295 288 292 298 311 313 315 314 310 319 333 324 304 302 304 300 293 288 289 293 296 299 301 302 306 309 312 315 315 317 320 323 325 331 341 352 11 28
304 302 301 301 299 300 300 299 296 297 290 292 285 293 296 299 295 291 286 294 309 313 307 298 298 295 290 284 282 284 284 286 289 290 292 296 299 301 302 304 304 304 303 303 304 307 312 324 342
303 300 299 299 299 300 296 290 289 294 292 292 290 295 292 291 282 279 276 285 301 297 289 288 288 285 282 280 277 277 278 280 281 282 284 287 291 294 294 294 295 294 293 293 291 291 290 292 299
299 296 295 294 290 291 289 289 291 295 293 289 293 295 296 290 281 279 275 267 280 282 281 284 285 281 281 280 277 276 276 278 278 278 279 279 280 283 284 284 285 286 286 286 285 283 280 278 281
296 295 293 289 284 284 285 289 294 293 292 291 289 292 295 290 279 278 271 255 262 277 272 279 284 282 282 281 279 278 275 274 276 275 274 273 273 275 276 277 277 278 278 278 279 278 274 271 270
292 290 287 285 276 277 282 288 288 290 286 284 288 289 290 293 289 285 276 258 246 263 257 271 283 282 282 283 282 280 277 275 276 275 271 270 269 268 269 270 271 273 273 272 273 273 270 268 264
288 285 280 275 271 270 276 280 281 284 287 286 288 286 287 288 290 284 288 257 246 264 273 271 273 276 276 281 284 282 281 281 280 277 273 271 267 265 264 265 267 268 269 268 269 269 268 265 261
286 280 275 271 266 265 273 280 283 285 286 289 286 287 286 284 279 277 279 274 262 265 270 276 280 282 281 281 285 286 282 284 284 281 275 273 270 265 263 263 264 265 266 265 266 267 266 263 260
284 277 274 272 268 267 271 277 283 284 286 289 289 288 282 282 276 271 265 263 271 270 263 270 284 287 286 284 288 288 284 283 282 279 278 278 272 267 265 265 263 262 261 261 262 262 263 261 258
281 278 277 274 273 273 276 279 282 283 285 286 287 285 281 278 276 267 260 257 268 266 260 270 279 282 283 284 286 287 285 281 282 280 277 278 274 269 267 266 265 264 262 260 259 258 258 257 255
283 282 277 274 276 278 281 283 285 284 286 285 283 281 279 279 274 272 273 263 274 268 259 266 273 273 279 282 284 286 285 282 280 278 276 276 273 272 271 268 267 265 263 261 259 257 256 255 254
291 286 284 281 279 280 285 288 287 284 286 287 287 283 282 278 272 278 277 270 274 268 274 275 277 278 282 280 283 286 285 283 279 277 277 277 275 274 272 271 270 266 263 263 260 255 256 255 253
298 294 295 292 287 285 291 295 293 288 288 290 292 288 285 279 278 281 284 281 280 280 289 283 281 288 288 284 289 291 286 281 278 275 277 276 275 274 272 271 270 267 262 262 262 259 256 253 251
312 305 302 299 298 302 305 308 301 296 297 294 295 292 288 286 290 286 285 285 285 281 287 288 286 292 294 295 295 293 290 284 278 276 276 274 273 273 274 272 269 268 264 262 262 259 257 253 250
322 314 316 314 312 317 319 317 311 310 308 306 299 295 294 292 292 289 286 294 296 295 294 292 292 294 293 296 296 294 289 285 281 278 275 274 272 273 274 272 271 269 266 263 261 258 256 252 249
325 325 329 331 323 328 330 325 324 330 316 311 312 294 283 292 292 294 296 302 303 302 301 297 295 295 295 295 294 291 287 285 283 280 277 275 273 272 273 271 270 269 266 264 262 258 254 252 250
335 336 332 331 337 341 336 333 332 337 335 329 328 319 313 311 298 300 306 308 308 309 307 304 301 298 296 296 293 290 290 289 285 284 281 278 277 275 271 270 268 267 266 264 262 259 255 253 251
338 334 327 330 337 345 346 336 332 342 342 332 321 314 321 325 324 321 320 318 317 316 309 303 300 299 299 300 296 293 293 291 289 287 284 279 276 274 272 270 269 268 266 265 261 258 255 253 252
331 326 323 325 336 345 345 338 343 346 342 336 322 327 338 341 336 334 333 330 324 319 313 314 313 311 303 301 298 296 293 290 288 287 286 282 278 275 275 274 272 268 267 265 263 260 257 255 253
322 317 319 325 341 347 352 349 350 348 344 337 343 5 1 1 4 0 350 341 334 327 321 318 319 318 314 310 305 301 298 293 289 288 286 283 280 278 276 275 272 269 266 265 263 262 260 257 255
321 321 322 328 336 341 342 345 347 354 351 353 356 357 7 6 17 14 3 354 345 337 332 332 331 329 327 322 313 308 305 302 298 294 290 287 284 281 278 275 274 272 270 267 265 263 261 259 257
320 327 331 336 336 342 350 352 346 358 13 25 24 19 24 18 23 14 8 2 354 352 350 348 346 342 337 332 326 321 317 312 307 303 298 295 291 288 284 280 277 274 272 270 267 265 263 261 259
323 329 332 334 333 343 358 9 21 27 34 43 41 36 39 39 31 19 11 6 4 3 1 357 354 348 342 337 331 326 322 318 314 309 305 300 295 291 288 285 281 277 275 273 271 269 266 264 263
317 323 324 327 328 351 17 30 35 32 34 38 40 35 35 34 25 16 13 10 9 6 2 357 353 347 342 339 336 333 329 324 319 315 311 308 303 298 294 291 286 283 280 278 275 273 270 268 266
296 303 313 320 327 338 9 24 29 30 30 32 32 32 28 26 21 15 12 9 7 3 357 354 351 347 344 341 339 337 334 331 327 322 318 315 310 304 299 294 291 287 285 282 280 277 275 272 269
293 295 313 317 315 324 344 5 25 29 29 27 24 29 27 23 18 13 10 9 5 0 355 352 350 349 347 345 343 342 339 336 331 327 324 321 316 310 305 300 296 293 290 286 283 280 278 275 272
289 291 305 310 310 309 325 14 19 22 20 19 17 22 22 19 16 12 10 9 4 358 355 354 352 351 349 347 345 344 342 339 335 332 329 325 321 317 311 306 301 298 294 290 286 283 281 278 275
278 274 280 299 294 300 312 343 350 359 11 12 13 19 17 14 14 12 10 7 4 1 358 356 354 352 349 348 347 346 344 341 339 336 333 330 326 322 317 311 306 302 297 294 291 288 286 282 278
278 279 275 282 279 284 288 316 329 344 354 359 2 6 8 11 11 9 6 5 3 2 359 357 355 353 352 351 349 347 346 344 342 339 337 334 331 327 323 317 311 307 303 300 296 293 290 287 283
272 272 271 271 272 276 283 303 314 329 339 348 353 358 2 6 6 3 1 1 0 360 359 358 356 354 353 352 351 350 349 347 345 342 340 338 335 331 328 323 318 313 308 304 300 297 295 291 288